GW7113 Weather Reports


time (UTC)temp
C
wind
direction
speed
KPH
gust
KPH
rain 1hr
cm
rain 24hr
cm
rain mn
cm
humidity
%
barometer
mb
20260906234551 32 149 9.7 20.9 0.00 0.10 0.10 51 1015.0
20260906234051 32 126 12.9 20.9 0.00 0.10 0.10 50 1015.0
20260906233551 33 195 9.7 20.9 0.00 0.10 0.10 50 1014.8
20260906233051 33 191 11.3 17.7 0.00 0.10 0.10 51 1014.9
20260906232551 33 169 14.5 22.5 0.00 0.10 0.10 50 1015.0
20260906232051 33 164 11.3 22.5 0.00 0.10 0.10 50 1014.9
20260906231551 33 171 8.0 22.5 0.00 0.10 0.10 49 1015.0
20260906231051 33 157 9.7 22.5 0.00 0.10 0.10 50 1015.0
20260906230551 33 244 9.7 22.5 0.00 0.10 0.10 52 1015.1
20260906230051 33 178 8.0 24.1 0.00 0.10 0.10 53 1014.9
20260906225551 32 192 8.0 24.1 0.00 0.10 0.10 55 1015.0
20260906225317 32 190 9.7 20.9 0.00 0.10 0.10 54 1015.0
20260906224550 32 165 8.0 20.9 0.00 0.10 0.10 57 1015.1
20260906223551 31 157 9.7 24.1 0.00 0.10 0.10 57 1015.3
20260906223051 32 153 12.9 16.1 0.00 0.10 0.10 55 1015.5
20260906222551 32 155 9.7 22.5 0.00 0.10 0.10 54 1015.4
20260906222051 33 161 4.8 22.5 0.00 0.10 0.10 53 1015.5
20260906221819 33 163 9.7 20.9 0.00 0.10 0.10 52 1015.5
20260906221050 33 115 11.3 22.5 0.00 0.10 0.10 54 1015.6
20260906220550 32 128 11.3 22.5 0.00 0.10 0.10 56 1015.5
20260906220050 32 104 9.7 22.5 0.00 0.10 0.10 56 1015.7
20260906215551 32 99 8.0 17.7 0.00 0.10 0.10 54 1015.5
20260906215051 32 162 9.7 24.1 0.00 0.10 0.10 53 1015.6
20260906214555 32 134 9.7 24.1 0.00 0.10 0.10 53 1015.6
20260906214050 32 128 9.7 20.9 0.00 0.10 0.10 53 1015.5
20260906213550 33 145 11.3 17.7 0.00 0.10 0.10 52 1015.6
20260906213314 33 154 8.0 17.7 0.00 0.10 0.10 52 1015.8
20260906212553 33 109 3.2 14.5 0.00 0.10 0.10 53 1015.8
20260906212051 32 164 9.7 14.5 0.00 0.10 0.10 55 1016.0
20260906211550 32 164 1.6 14.5 0.00 0.10 0.10 56 1016.0
20260906211051 31 122 6.4 14.5 0.00 0.10 0.10 58 1016.1
20260906210550 30 142 6.4 12.9 0.00 0.10 0.10 60 1016.2
20260906210312 30 92 6.4 12.9 0.00 0.10 0.10 60 1016.2
20260906205551 30 112 9.7 14.5 0.00 0.10 0.10 64 1016.6
20260906205051 30 101 4.8 14.5 0.00 0.10 0.10 63 1016.5
20260906204813 30 114 3.2 9.7 0.00 0.10 0.10 66 1016.5
20260906204050 30 146 6.4 11.3 0.00 0.10 0.10 67 1016.3
20260906203551 29 97 3.2 11.3 0.00 0.10 0.10 66 1016.7
20260906203051 29 79 4.8 9.7 0.00 0.10 0.10 68 1016.7
20260906202551 29 102 6.4 9.7 0.00 0.10 0.10 72 1016.8
20260906202051 29 92 3.2 6.4 0.00 0.10 0.10 71 1016.7
20260906201550 28 94 3.2 4.8 0.00 0.10 0.10 72 1016.8
20260906201051 28 95 3.2 6.4 0.00 0.10 0.10 75 1016.8
20260906200551 27 110 0.0 6.4 0.00 0.10 0.10 76 1017.1
20260906200051 27 105 3.2 9.7 0.00 0.10 0.10 80 1016.9
20260906195551 27 95 6.4 9.7 0.00 0.10 0.10 82 1017.1
20260906195051 27 89 4.8 9.7 0.03 0.10 0.10 82 1017.1
20260906194550 27 134 6.4 9.7 0.05 0.10 0.10 83 1017.2
20260906194050 27 205 3.2 11.3 0.10 0.10 0.10 82 1017.1
20260906193818 26 210 3.2 11.3 0.10 0.10 0.10 85 1017.1
20260906193051 26 216 4.8 9.7 0.10 0.10 0.10 85 1017.3
20260906192807 26 245 4.8 11.3 0.10 0.10 0.10 84 1017.1
20260906192038 26 231 4.8 11.3 0.10 0.10 0.10 87 1017.3
20260906191539 25 215 6.4 11.3 0.10 0.10 0.10 88 1017.3
20260906191304 25 226 3.2 12.9 0.10 0.10 0.10 88 1017.3
20260906190539 25 255 6.4 12.9 0.10 0.10 0.10 87 1017.3
20260906190039 25 261 3.2 9.7 0.10 0.10 0.10 86 1017.8
20260906185539 25 229 4.8 4.8 0.10 0.10 0.10 85 1017.6
20260906185039 25 207 1.6 4.8 0.08 0.08 0.08 83 1017.7
20260906184539 25 185 3.2 9.7 0.05 0.05 0.05 83 1018.0
20260906184039 25 165 3.2 12.9 0.00 0.00 0.03 81 1017.9
20260906183756 26 130 4.8 17.7 0.00 0.00 0.00 80 1017.9
20260906183039 26 135 11.3 24.1 0.00 0.00 0.00 77 1017.8
20260906182757 27 167 12.9 24.1 0.00 0.00 0.00 68 1017.9
20260906182038 28 182 11.3 24.1 0.00 0.00 0.00 65 1018.0
20260906181538 29 164 14.5 22.5 0.00 0.00 0.00 62 1018.0
20260906181038 30 149 11.3 16.1 0.00 0.00 0.00 59 1017.8
20260906180540 31 122 6.4 16.1 0.00 0.00 0.00 54 1017.9
20260906180039 33 128 6.4 16.1 0.00 0.00 0.00 51 1018.0
20260906175539 33 18 6.4 14.5 0.00 0.00 0.00 52 1018.0
20260906174748 32 49 8.0 14.5 0.00 0.00 0.00 54 1017.8
20260906174026 32 40 3.2 14.5 0.00 0.00 0.00 54 1018.2
20260906173527 32 45 4.8 14.5 0.00 0.00 0.00 53 1018.1
20260906173245 32 96 4.8 14.5 0.00 0.00 0.00 52 1018.1
20260906172527 32 71 4.8 14.5 0.00 0.00 0.00 52 1018.2
20260906172028 32 44 6.4 14.5 0.00 0.00 0.00 53 1018.2
20260906171751 32 68 11.3 16.1 0.00 0.00 0.00 54 1018.1
20260906171026 32 46 9.7 16.1 0.00 0.00 0.00 55 1018.4
20260906170526 32 4 8.0 16.1 0.00 0.00 0.00 54 1018.2
20260906170249 32 47 6.4 12.9 0.00 0.00 0.00 54 1018.5
20260906165527 33 326 6.4 17.7 0.00 0.00 0.00 53 1018.4
20260906165027 33 346 3.2 17.7 0.00 0.00 0.00 53 1018.4
20260906164515 33 12 3.2 14.5 0.00 0.00 0.00 52 1018.4
20260906163733 33 126 4.8 11.3 0.00 0.00 0.00 49 1018.6
20260906163015 33 40 1.6 11.3 0.00 0.00 0.00 48 1018.4
20260906162515 33 185 1.6 9.7 0.00 0.00 0.00 52 1018.6
20260906162015 33 164 3.2 9.7 0.00 0.00 0.00 50 1018.2
20260906161515 33 147 3.2 11.3 0.00 0.00 0.00 48 1018.6
20260906161015 32 87 4.8 11.3 0.00 0.00 0.00 51 1018.6
20260906160514 33 119 3.2 11.3 0.00 0.00 0.00 53 1018.5
20260906160014 32 317 3.2 9.7 0.00 0.00 0.00 54 1018.5
20260906155514 33 98 0.0 9.7 0.00 0.00 0.00 51 1018.4
20260906155014 33 119 3.2 6.4 0.00 0.00 0.00 52 1018.1
20260906154514 32 125 0.0 12.9 0.00 0.00 0.00 56 1018.1
20260906154014 31 101 3.2 12.9 0.00 0.00 0.00 56 1018.2
20260906153515 31 151 6.4 11.3 0.00 0.00 0.00 58 1018.1
20260906153015 31 156 1.6 14.5 0.00 0.00 0.00 59 1018.2
20260906152515 30 153 8.0 17.7 0.00 0.00 0.00 59 1018.1
20260906152009 30 152 9.7 17.7 0.00 0.00 0.00 59 1018.1
20260906151724 31 124 6.4 17.7 0.00 0.00 0.00 58 1017.9
20260906151002 31 176 8.0 17.7 0.00 0.00 0.00 58 1017.8
20260906150502 30 161 1.6 17.7 0.00 0.00 0.00 59 1017.9
20260906150002 30 215 8.0 16.1 0.00 0.00 0.00 60 1017.8
20260906145502 30 116 9.7 16.1 0.00 0.00 0.00 61 1017.7
20260906145002 29 159 4.8 14.5 0.00 0.00 0.00 63 1017.8
20260906144503 28 165 6.4 14.5 0.00 0.00 0.00 64 1017.7
20260906144003 28 166 4.8 20.9 0.00 0.00 0.00 67 1017.7
20260906143734 27 153 6.4 20.9 0.00 0.00 0.00 69 1017.7
20260906143002 26 171 11.3 16.1 0.00 0.00 0.00 74 1017.7
20260906142502 26 249 3.2 3.2 0.00 0.00 0.00 77 1017.9
20260906142002 25 101 1.6 4.8 0.00 0.00 0.00 78 1017.7
20260906141503 25 85 1.6 4.8 0.00 0.00 0.00 79 1017.7
20260906141002 25 89 0.0 3.2 0.00 0.00 0.00 79 1017.7
20260906140502 25 93 1.6 4.8 0.00 0.00 0.00 79 1017.9
20260906140002 25 90 3.2 4.8 0.00 0.00 0.00 79 1017.7
20260906135502 25 97 1.6 3.2 0.00 0.00 0.00 79 1017.7
20260906135002 25 98 3.2 3.2 0.00 0.00 0.00 80 1017.4
20260906134730 25 10 0.0 3.2 0.00 0.00 0.00 80 1017.6
20260906134222 24 9 1.6 1.6 0.00 0.00 0.00 81 1017.5
20260906133722 24 8 0.0 0.0 0.00 0.00 0.00 81 1017.3
20260906133002 24 8 0.0 0.0 0.00 0.00 0.00 81 1017.3
20260906132456 24 8 0.0 0.0 0.00 0.00 0.00 81 1017.2
20260906131951 24 8 0.0 1.6 0.00 0.00 0.00 81 1017.0
20260906131451 24 8 0.0 3.2 0.00 0.00 0.00 82 1017.3
20260906130951 24 8 0.0 3.2 0.00 0.00 0.00 83 1017.0
20260906130710 23 210 1.6 1.6 0.00 0.00 0.00 83 1017.0
20260906125950 23 208 0.0 3.2 0.00 0.00 0.00 84 1016.8
20260906125450 23 208 0.0 3.2 0.00 0.00 0.00 85 1016.8
20260906125202 23 335 1.6 3.2 0.00 0.00 0.00 85 1016.9
20260906124426 22 336 1.6 4.8 0.00 0.00 0.00 85 1016.5
20260906123927 22 336 1.6 4.8 0.00 0.00 0.00 84 1016.6
20260906123427 22 3 3.2 4.8 0.00 0.00 0.00 84 1016.2
20260906122927 22 339 3.2 3.2 0.00 0.00 0.00 85 1016.2
20260906122427 22 339 1.6 6.4 0.00 0.00 0.00 83 1016.3
20260906122147 22 347 3.2 6.4 0.00 0.00 0.00 83 1016.3
20260906121426 22 318 3.2 6.4 0.00 0.00 0.00 83 1016.1
20260906120926 22 317 1.6 4.8 0.00 0.00 0.00 82 1016.3
20260906120426 22 316 1.6 6.4 0.00 0.00 0.00 82 1016.1
20260906115926 22 328 4.8 6.4 0.00 0.00 0.00 82 1015.9
20260906115426 22 339 3.2 4.8 0.00 0.00 0.00 82 1015.9
20260906114927 23 235 1.6 4.8 0.00 0.00 0.00 81 1016.0
20260906114649 23 339 0.0 6.4 0.00 0.00 0.00 81 1015.8
20260906113926 23 339 1.6 6.4 0.00 0.00 0.00 81 1015.8
20260906113426 23 14 1.6 9.7 0.00 0.00 0.00 81 1015.9
20260906112926 23 318 1.6 14.5 0.00 0.00 0.00 82 1015.8
20260906112639 23 188 6.4 17.7 0.00 0.00 0.00 82 1015.7
20260906111915 23 220 9.7 17.7 0.00 0.00 0.00 82 1015.8
20260906111415 23 185 11.3 17.7 0.00 0.00 0.00 82 1015.4
20260906110915 23 214 9.7 17.7 0.00 0.00 0.00 82 1015.5
20260906110408 23 220 9.7 16.1 0.00 0.00 0.00 81 1015.4
20260906105902 23 217 11.3 17.7 0.00 0.00 0.00 82 1015.3
20260906105403 23 206 12.9 17.7 0.00 0.00 0.00 81 1015.3
20260906104902 23 221 9.7 14.5 0.00 0.00 0.00 81 1015.2
20260906104403 23 208 8.0 14.5 0.00 0.00 0.00 81 1015.2
20260906103903 23 213 9.7 14.5 0.00 0.00 0.00 81 1015.3
20260906103626 23 194 6.4 14.5 0.00 0.00 0.00 81 1015.3
20260906102903 23 186 8.0 14.5 0.00 0.00 0.00 81 1015.2
20260906102402 23 154 8.0 16.1 0.00 0.00 0.00 80 1015.0
20260906101902 23 195 8.0 16.1 0.00 0.00 0.00 80 1015.0
20260906101403 23 214 9.7 20.9 0.00 0.00 0.00 80 1014.9
20260906101123 23 199 9.7 20.9 0.00 0.00 0.00 80 1015.0
20260906100403 23 181 9.7 17.7 0.00 0.00 0.00 79 1015.1
20260906095902 23 212 9.7 20.9 0.00 0.00 0.00 79 1015.0
20260906095404 23 194 8.0 20.9 0.00 0.00 0.00 79 1015.1
20260906095123 23 216 9.7 20.9 0.00 0.00 0.00 79 1015.3
20260906094403 23 217 12.9 20.9 0.00 0.00 0.00 79 1015.2
20260906093902 23 212 9.7 22.5 0.00 0.00 0.00 78 1015.3
20260906093628 23 198 11.3 22.5 0.00 0.00 0.00 78 1015.1
20260906092903 23 199 6.4 20.9 0.00 0.00 0.00 78 1015.4
20260906092402 23 180 16.1 20.9 0.00 0.00 0.00 78 1015.3
20260906092119 23 161 9.7 20.9 0.00 0.00 0.00 78 1015.3
20260906091403 23 190 12.9 20.9 0.00 0.00 0.00 78 1015.3
20260906091126 23 163 8.0 22.5 0.00 0.00 0.00 77 1015.4
20260906090626 23 179 12.9 22.5 0.00 0.00 0.00 77 1015.3
20260906085902 23 156 9.7 20.9 0.00 0.00 0.00 77 1015.1
20260906085402 24 183 12.9 24.1 0.00 0.00 0.00 76 1015.1
20260906084902 24 136 14.5 30.6 0.00 0.00 0.00 76 1015.1
20260906084623 24 187 11.3 30.6 0.00 0.00 0.00 76 1015.2
20260906083903 24 172 11.3 25.7 0.00 0.00 0.00 76 1015.2
20260906083345 24 175 16.1 25.7 0.00 0.00 0.00 76 1015.2
20260906082838 24 166 14.5 27.4 0.00 0.00 0.00 76 1015.3
20260906082339 24 164 17.7 27.4 0.00 0.00 0.00 75 1015.3
20260906081839 24 170 22.5 27.4 0.00 0.00 0.00 75 1015.1
20260906081339 24 157 19.3 25.7 0.00 0.00 0.00 76 1015.6
20260906080839 24 191 16.1 25.7 0.00 0.00 0.00 77 1015.3
20260906080339 24 167 12.9 25.7 0.00 0.00 0.00 78 1015.5
20260906075833 24 178 14.5 24.1 0.00 0.00 0.00 78 1015.7
20260906075554 24 180 11.3 24.1 0.00 0.00 0.00 78 1015.7
20260906074826 24 157 12.9 20.9 0.00 0.00 0.00 78 1015.8
20260906074326 24 194 12.9 17.7 0.00 0.00 0.00 77 1015.6
20260906074051 25 152 11.3 17.7 0.00 0.00 0.00 77 1015.8
20260906073327 25 182 9.7 17.7 0.00 0.00 0.00 76 1015.8
20260906072827 25 157 9.7 20.9 0.00 0.00 0.00 76 1015.8
20260906072320 25 175 12.9 20.9 0.00 0.00 0.00 76 1015.7
20260906071815 25 160 12.9 20.9 0.00 0.00 0.00 75 1016.0
20260906071315 25 171 14.5 20.9 0.00 0.00 0.00 75 1016.1
20260906070815 25 175 12.9 22.5 0.00 0.00 0.00 75 1016.0
20260906070315 25 179 14.5 24.1 0.00 0.00 0.00 75 1015.8
20260906065814 25 166 14.5 24.1 0.00 0.00 0.00 74 1016.0
20260906065536 25 135 9.7 20.9 0.00 0.00 0.00 74 1015.9
20260906064314 25 162 12.9 24.1 0.00 0.00 0.00 74 1016.1
20260906063814 26 178 12.9 24.1 0.00 0.00 0.00 73 1016.1
20260906062815 26 175 12.9 30.6 0.00 0.00 0.00 73 1016.1
20260906062314 26 164 16.1 30.6 0.00 0.00 0.00 72 1016.5
20260906062042 26 166 11.3 25.7 0.00 0.00 0.00 72 1016.1
20260906061302 26 190 14.5 27.4 0.00 0.00 0.00 72 1016.2
20260906060802 26 160 16.1 27.4 0.00 0.00 0.00 72 1016.5
20260906060302 26 158 14.5 33.8 0.00 0.00 0.00 71 1016.2
20260906055802 26 173 11.3 33.8 0.00 0.00 0.00 71 1016.3
20260906055306 26 167 20.9 29.0 0.00 0.00 0.00 71 1016.1
20260906054802 26 163 14.5 29.0 0.00 0.00 0.00 71 1016.3
20260906054302 26 174 12.9 30.6 0.00 0.00 0.00 71 1016.1
20260906054023 26 156 20.9 33.8 0.00 0.00 0.00 71 1016.3
20260906053522 26 158 17.7 33.8 0.00 0.00 0.00 70 1016.5
20260906052802 26 169 11.3 30.6 0.00 0.00 0.00 70 1016.3
20260906052526 26 121 16.1 27.4 0.00 0.00 0.00 70 1016.3
20260906051803 26 154 9.7 27.4 0.00 0.00 0.00 70 1016.2
20260906051302 26 145 14.5 29.0 0.00 0.00 0.00 69 1016.2
20260906050802 27 145 14.5 29.0 0.00 0.00 0.00 69 1016.3
20260906050302 27 147 17.7 29.0 0.00 0.00 0.00 68 1016.6
20260906045803 27 156 16.1 35.4 0.00 0.00 0.00 68 1016.6
20260906045305 27 134 11.3 35.4 0.00 0.00 0.00 67 1016.5
20260906044803 27 145 14.5 29.0 0.00 0.00 0.00 66 1016.6
20260906044303 27 186 16.1 27.4 0.00 0.00 0.00 66 1016.6
20260906043803 27 160 14.5 29.0 0.00 0.00 0.00 66 1016.6
20260906043303 27 143 14.5 29.0 0.00 0.00 0.00 65 1016.5
20260906042803 27 145 16.1 29.0 0.00 0.00 0.00 65 1016.7
20260906042532 27 114 17.7 27.4 0.00 0.00 0.00 65 1016.6
20260906042023 27 150 11.3 27.4 0.00 0.00 0.00 64 1016.6
20260906041303 27 139 9.7 22.5 0.00 0.00 0.00 64 1016.5
20260906040803 27 134 9.7 22.5 0.00 0.00 0.00 63 1016.3
20260906040303 27 130 14.5 22.5 0.00 0.00 0.00 63 1016.3
20260906040028 27 123 12.9 22.5 0.00 0.00 0.00 62 1016.3
20260906035305 27 124 12.9 20.9 0.00 0.00 0.00 62 1016.1
20260906034803 27 126 9.7 20.9 0.00 0.00 0.00 61 1016.2
20260906034303 27 142 12.9 22.5 0.00 0.00 0.00 60 1016.2
20260906033803 27 121 9.7 22.5 0.00 0.00 0.00 60 1016.3
20260906033302 27 110 9.7 24.1 0.00 0.00 0.00 59 1016.0
20260906032802 27 121 11.3 24.1 0.00 0.00 0.00 59 1016.3
20260906032306 27 135 9.7 24.1 0.00 0.00 0.00 57 1016.1
20260906031803 27 128 14.5 25.7 0.00 0.00 0.00 55 1016.2
20260906031302 27 90 11.3 25.7 0.00 0.00 0.00 55 1016.2
20260906030803 27 123 9.7 12.9 0.00 0.00 0.00 55 1016.0
20260906030302 27 152 8.0 11.3 0.00 0.00 0.00 55 1015.7
20260906025802 27 164 6.4 11.3 0.00 0.00 0.00 55 1015.6
20260906025306 27 167 8.0 12.9 0.00 0.00 0.00 55 1015.5
20260906024802 27 172 8.0 12.9 0.00 0.00 0.00 56 1015.6
20260906024302 26 165 9.7 11.3 0.00 0.00 0.00 56 1015.4
20260906023802 26 169 8.0 11.3 0.00 0.00 0.00 56 1015.2
20260906023302 27 158 6.4 11.3 0.00 0.00 0.00 56 1015.3
20260906022803 27 167 6.4 11.3 0.00 0.00 0.00 56 1015.1
20260906022527 27 152 6.4 11.3 0.00 0.00 0.00 56 1014.8
20260906021802 27 142 6.4 11.3 0.00 0.00 0.00 56 1015.0
20260906021302 27 129 6.4 9.7 0.00 0.00 0.00 55 1014.9
20260906020802 27 135 6.4 9.7 0.00 0.00 0.00 55 1015.0
20260906020302 27 144 4.8 6.4 0.00 0.00 0.00 54 1015.0
20260906020026 27 147 4.8 6.4 0.00 0.00 0.00 54 1014.5
20260906015305 27 143 4.8 6.4 0.00 0.00 0.00 54 1014.9
20260906014803 28 146 4.8 9.7 0.00 0.00 0.00 54 1014.7
20260906014302 28 150 4.8 9.7 0.00 0.00 0.00 53 1014.7
20260906013802 28 137 6.4 9.7 0.00 0.00 0.00 53 1014.5
20260906013521 28 132 6.4 9.7 0.00 0.00 0.00 53 1014.8
20260906012803 28 129 6.4 9.7 0.00 0.00 0.00 52 1014.5
20260906012306 29 134 6.4 6.4 0.00 0.00 0.00 51 1014.7
20260906012027 29 126 4.8 9.7 0.00 0.00 0.00 51 1014.4
20260906011303 29 127 4.8 9.7 0.00 0.00 0.00 50 1014.4
20260906010803 30 141 4.8 11.3 0.00 0.00 0.00 49 1014.5
20260906010529 30 159 4.8 11.3 0.00 0.00 0.00 48 1014.9
20260906005802 30 142 6.4 14.5 0.00 0.00 0.00 48 1014.5
20260906005306 31 137 4.8 14.5 0.00 0.00 0.00 47 1014.5
20260906004802 31 129 11.3 16.1 0.00 0.00 0.00 47 1014.4
20260906004302 31 117 11.3 16.1 0.00 0.00 0.00 47 1014.3
20260906003802 31 136 9.7 20.9 0.00 0.00 0.00 46 1014.5
20260906003302 31 111 14.5 20.9 0.00 0.00 0.00 46 1014.4
20260906002802 32 145 11.3 20.9 0.00 0.00 0.00 45 1014.2
20260906002305 32 111 9.7 17.7 0.00 0.00 0.00 46 1014.3
20260906001802 32 128 8.0 17.7 0.00 0.00 0.00 46 1014.2
20260906001302 32 119 12.9 17.7 0.00 0.00 0.00 45 1014.2
20260906000802 32 111 9.7 17.7 0.00 0.00 0.00 45 1014.1
20260905235802 33 113 14.5 27.4 0.00 0.00 0.00 43 1014.3
20260905235306 34 91 12.9 27.4 0.00 0.00 0.00 42 1014.3